Flag for Poland Weather past 2 weeks in Lódz, Poland

Now
61 °F

Fog.


Feels Like: 61 °F
Forecast: 53 / 60 °F
Wind: 1 mph from North

Location: Lodz

Current Time: Sep 30, 2014 at 7:07:02 PM

Latest Report: Sep 30, 2014 at 6:00 PM


Visibility: 2 mi

Pressure: 30.24 "Hg

Humidity: 94%

Dew point: 59 °F

Location of LódzLocation

Historic Weather in Lódz — Graph

°F

Lódz temperature yesterday

Maximum temperature yesterday: 69 °F (at 3:00 PM)
Minimum temperature yesterday: 43 °F (at 7:00 AM)
Average temperature yesterday: 55 °F

Past Weeks' High & Low Weather Summary

 TemperatureHumidityPressure
High72 °F (Sep 15, 5:00 PM)99% (Sep 21, 12:00 AM)30.40 "Hg (Sep 21, 12:00 AM)
Low34 °F (Sep 24, 6:00 AM)42% (Sep 19, 1:00 PM)29.69 "Hg (Sep 22, 4:00 AM)
Average56 °F79%30.07 "Hg
* Reported Sep 15 5:00 PM — Sep 30 5:00 PM, Lódz, Weather by CustomWeather, © 2014

Note: Actual official high and low records may vary slightly from our data, if they occured in-between our weather recording intervals... More about our weather records

Advertising

Lódz weather history for previous 24 hours

 ConditionsComfort  
Time TempWeatherWind HumidityBarometerVisibility
5:00 PM
Sep 30
62 °FFog.2 mph93%30.24 "Hg3 mi
4:00 PM62 °FOvercast.2 mph94%30.24 "Hg5 mi
3:00 PM63 °FSprinkles. Overcast.3 mph84%30.24 "Hg6 mi
2:00 PM64 °FOvercast.3 mph82%30.24 "Hg7 mi
1:00 PM63 °FOvercast.2 mph80%30.22 "Hg7 mi
12:00 PM62 °FOvercast.2 mph78%30.22 "Hg6 mi
11:00 AM60 °FOvercast.2 mph82%30.23 "Hg7 mi
10:00 AM58 °FOvercast.2 mph85%30.23 "Hg8 mi
9:00 AM56 °FFog.2 mph90%30.23 "Hg6 mi
8:00 AM54 °FFog.No wind95%30.22 "Hg4 mi
7:00 AM54 °FFog.N/A95%30.22 "Hg5 mi
6:00 AM51 °FFog.1 mph97%30.22 "Hg3 mi
5:00 AM51 °FFog.1 mph98%30.22 "Hg3 mi
4:00 AM51 °FFog.No wind98%30.22 "Hg2 mi
3:00 AM50 °FFog.1 mph95%30.22 "Hg3 mi
2:00 AM52 °FFog.1 mph97%30.24 "Hg4 mi
1:00 AM52 °FFog.No wind97%30.24 "Hg3 mi
12:00 AM53 °FPassing clouds.No wind91%30.23 "Hg6 mi
11:00 PM
Sep 29
53 °FPassing clouds.No wind90%30.23 "Hg7 mi
10:00 PM54 °FFog.1 mph88%30.24 "Hg6 mi
9:00 PM54 °FPassing clouds.No wind86%30.23 "Hg6 mi
8:00 PM56 °FPassing clouds.No wind85%30.23 "Hg9 mi
7:00 PM59 °FPassing clouds.1 mph75%30.23 "Hg10 mi
Weather by CustomWeather, © 2014

See weather overviewHow to use our weather pages